GFSNIL_prec_precacc6_105.txt.gz
Total_Precipitation_Accumulation
0.00 0.00 0.00 0.00 0.00 0.02 0.08 0.15 0.19 0.17 0.15 0.17 0.18 0.21 0.21 0.19 0.12 0.02 0.01 0.00 0.00 0.02
0.00 0.00 0.00 0.00 0.00 0.01 0.06 0.15 0.23 0.23 0.15 0.16 0.19 0.19 0.21 0.18 0.20 0.10 0.03 0.01 0.00 0.01
0.00 0.00 0.00 0.00 0.00 0.00 0.03 0.12 0.13 0.12 0.14 0.15 0.20 0.16 0.15 0.15 0.13 0.10 0.05 0.02 0.01 0.00
0.00 0.00 0.00 0.00 0.00 0.00 0.01 0.05 0.09 0.08 0.07 0.05 0.04 0.05 0.04 0.05 0.04 0.03 0.02 0.01 0.00 0.00
0.00 0.00 0.00 0.00 0.00 0.00 0.00 0.01 0.03 0.06 0.07 0.02 0.00 0.00 0.00 0.00 0.00 0.00 0.00 0.00 0.01 0.01
0.00 0.00 0.00 0.00 0.00 0.00 0.00 0.00 0.00 0.01 0.01 0.00 0.00 0.00 0.00 0.00 0.00 0.00 0.00 0.00 0.01 0.00
0.00 0.00 0.00 0.00 0.00 0.00 0.00 0.00 0.00 0.00 0.00 0.00 0.00 0.00 0.00 0.00 0.00 0.00 0.00 0.00 0.00 0.00
0.00 0.00 0.00 0.00 0.00 0.00 0.00 0.00 0.00 0.00 0.00 0.00 0.00 0.00 0.00 0.00 0.00 0.00 0.00 0.00 0.00 0.00
0.00 0.00 0.00 0.00 0.00 0.00 0.00 0.00 0.00 0.00 0.00 0.00 0.00 0.00 0.00 0.00 0.00 0.00 0.00 0.00 0.01 0.01
0.00 0.00 0.00 0.00 0.00 0.00 0.00 0.00 0.00 0.00 0.00 0.00 0.00 0.01 0.00 0.00 0.00 0.01 0.01 0.01 0.01 0.01
0.08 0.04 0.00 0.00 0.00 0.00 0.00 0.00 0.00 0.00 0.00 0.01 0.00 0.02 0.01 0.01 0.01 0.02 0.04 0.04 0.05 0.06
0.12 0.12 0.06 0.01 0.00 0.00 0.00 0.00 0.00 0.00 0.01 0.01 0.01 0.03 0.03 0.02 0.01 0.05 0.08 0.08 0.11 0.14
0.14 0.12 0.08 0.07 0.03 0.00 0.00 0.00 0.00 0.01 0.02 0.04 0.02 0.06 0.06 0.04 0.02 0.04 0.10 0.15 0.22 0.27
0.17 0.13 0.10 0.07 0.05 0.02 0.00 0.01 0.03 0.04 0.05 0.07 0.08 0.11 0.12 0.09 0.03 0.04 0.12 0.17 0.19 0.27

GFSNIL_prec_precacc6_108.txt.gz
Total_Precipitation_Accumulation
0.00 0.00 0.00 0.00 0.01 0.04 0.26 0.24 0.31 0.30 0.25 0.24 0.21 0.20 0.20 0.19 0.13 0.03 0.01 0.00 0.00 0.00
0.00 0.00 0.00 0.00 0.00 0.02 0.08 0.24 0.27 0.34 0.30 0.29 0.31 0.28 0.28 0.25 0.25 0.13 0.06 0.03 0.01 0.01
0.00 0.00 0.00 0.01 0.01 0.01 0.04 0.12 0.14 0.22 0.30 0.30 0.31 0.28 0.29 0.25 0.22 0.22 0.12 0.06 0.03 0.01
0.00 0.00 0.00 0.00 0.01 0.01 0.02 0.09 0.21 0.16 0.19 0.24 0.21 0.22 0.21 0.19 0.18 0.17 0.15 0.11 0.05 0.02
0.00 0.00 0.00 0.00 0.00 0.00 0.01 0.02 0.08 0.18 0.17 0.16 0.16 0.11 0.18 0.14 0.12 0.10 0.09 0.07 0.04 0.02
0.00 0.00 0.00 0.00 0.00 0.00 0.00 0.01 0.00 0.03 0.09 0.12 0.10 0.05 0.05 0.10 0.07 0.04 0.02 0.02 0.02 0.01
0.00 0.00 0.00 0.00 0.00 0.00 0.00 0.00 0.00 0.00 0.01 0.03 0.07 0.03 0.04 0.01 0.01 0.00 0.00 0.00 0.00 0.00
0.00 0.00 0.00 0.00 0.00 0.00 0.00 0.00 0.00 0.00 0.00 0.00 0.00 0.01 0.02 0.01 0.00 0.00 0.00 0.00 0.00 0.00
0.00 0.00 0.00 0.00 0.00 0.00 0.00 0.00 0.00 0.00 0.00 0.00 0.00 0.00 0.00 0.00 0.00 0.00 0.00 0.00 0.00 0.00
0.01 0.00 0.00 0.00 0.00 0.00 0.00 0.00 0.00 0.00 0.00 0.00 0.00 0.00 0.00 0.00 0.00 0.00 0.00 0.00 0.00 0.01
0.08 0.04 0.00 0.00 0.00 0.00 0.00 0.00 0.00 0.00 0.00 0.00 0.00 0.00 0.00 0.00 0.00 0.01 0.01 0.02 0.03 0.04
0.10 0.10 0.07 0.02 0.00 0.00 0.00 0.00 0.00 0.00 0.00 0.00 0.00 0.01 0.01 0.01 0.01 0.03 0.04 0.04 0.05 0.07
0.06 0.08 0.08 0.07 0.04 0.00 0.00 0.00 0.00 0.00 0.01 0.03 0.01 0.03 0.04 0.03 0.01 0.04 0.05 0.06 0.15 0.23
0.07 0.08 0.09 0.08 0.07 0.03 0.01 0.00 0.00 0.01 0.03 0.04 0.06 0.06 0.08 0.08 0.03 0.04 0.07 0.11 0.15 0.26

GFSNIL_prec_precacc6_114.txt.gz
Total_Precipitation_Accumulation
0.00 0.00 0.01 0.00 0.01 0.02 0.08 0.17 0.33 0.39 0.30 0.25 0.16 0.14 0.16 0.10 0.10 0.01 0.00 0.00 0.00 0.00
0.00 0.00 0.01 0.00 0.00 0.00 0.04 0.21 0.29 0.49 0.41 0.20 0.19 0.15 0.13 0.14 0.14 0.07 0.00 0.00 0.00 0.00
0.00 0.00 0.01 0.00 0.00 0.01 0.04 0.16 0.24 0.32 0.44 0.28 0.18 0.14 0.10 0.09 0.04 0.02 0.00 0.00 0.00 0.00
0.00 0.00 0.00 0.01 0.00 0.01 0.03 0.10 0.21 0.11 0.25 0.31 0.22 0.13 0.08 0.05 0.03 0.01 0.02 0.01 0.01 0.00
0.00 0.00 0.00 0.00 0.00 0.01 0.02 0.07 0.18 0.26 0.20 0.26 0.27 0.24 0.08 0.04 0.04 0.04 0.04 0.03 0.04 0.03
0.00 0.00 0.00 0.00 0.00 0.01 0.01 0.03 0.07 0.21 0.26 0.25 0.23 0.23 0.12 0.09 0.08 0.07 0.08 0.06 0.05 0.03
0.00 0.00 0.00 0.00 0.00 0.00 0.00 0.01 0.03 0.07 0.10 0.17 0.17 0.21 0.18 0.12 0.09 0.08 0.08 0.07 0.08 0.08
0.00 0.00 0.00 0.00 0.00 0.00 0.00 0.00 0.01 0.01 0.03 0.04 0.11 0.16 0.18 0.18 0.11 0.08 0.11 0.09 0.06 0.07
0.00 0.00 0.00 0.00 0.00 0.00 0.00 0.00 0.00 0.00 0.01 0.01 0.01 0.15 0.14 0.17 0.20 0.14 0.08 0.07 0.06 0.04
0.00 0.00 0.00 0.00 0.00 0.00 0.00 0.00 0.00 0.00 0.00 0.00 0.00 0.02 0.06 0.13 0.12 0.16 0.16 0.12 0.06 0.04
0.01 0.00 0.00 0.00 0.00 0.00 0.00 0.00 0.00 0.00 0.00 0.00 0.00 0.00 0.01 0.05 0.02 0.05 0.06 0.09 0.08 0.07
0.02 0.01 0.01 0.00 0.00 0.00 0.00 0.00 0.00 0.00 0.00 0.00 0.00 0.00 0.00 0.01 0.00 0.01 0.02 0.02 0.03 0.03
0.03 0.02 0.01 0.01 0.00 0.00 0.00 0.00 0.00 0.00 0.01 0.02 0.01 0.04 0.03 0.03 0.02 0.03 0.04 0.04 0.06 0.11
0.00 0.00 0.01 0.02 0.02 0.01 0.01 0.01 0.01 0.01 0.01 0.01 0.02 0.04 0.06 0.04 0.01 0.01 0.02 0.02 0.02 0.06

GFSNIL_prec_precacc6_117.txt.gz
Total_Precipitation_Accumulation
0.00 0.00 0.00 0.00 0.01 0.01 0.01 0.01 0.10 0.20 0.32 0.42 0.29 0.29 0.39 0.34 0.23 0.12 0.06 0.02 0.03 0.00
0.00 0.00 0.00 0.00 0.01 0.01 0.00 0.02 0.10 0.20 0.32 0.28 0.37 0.32 0.35 0.40 0.34 0.26 0.10 0.06 0.04 0.03
0.00 0.00 0.00 0.01 0.00 0.00 0.00 0.02 0.07 0.14 0.30 0.25 0.19 0.31 0.29 0.35 0.32 0.31 0.20 0.06 0.03 0.03
0.00 0.00 0.00 0.01 0.01 0.01 0.01 0.03 0.10 0.06 0.15 0.22 0.12 0.20 0.21 0.21 0.27 0.28 0.26 0.11 0.03 0.01
0.00 0.00 0.01 0.01 0.01 0.00 0.01 0.03 0.07 0.08 0.07 0.17 0.13 0.19 0.19 0.19 0.15 0.18 0.20 0.12 0.05 0.01
0.00 0.00 0.01 0.01 0.01 0.00 0.00 0.02 0.06 0.14 0.13 0.16 0.11 0.13 0.16 0.21 0.13 0.09 0.07 0.06 0.03 0.01
0.01 0.00 0.00 0.01 0.00 0.00 0.00 0.00 0.03 0.07 0.10 0.17 0.20 0.13 0.11 0.10 0.09 0.02 0.01 0.01 0.01 0.01
0.01 0.01 0.00 0.01 0.01 0.01 0.01 0.00 0.00 0.00 0.03 0.07 0.15 0.15 0.11 0.10 0.06 0.03 0.01 0.02 0.02 0.03
0.01 0.01 0.01 0.01 0.01 0.01 0.01 0.01 0.01 0.01 0.00 0.01 0.02 0.16 0.11 0.10 0.12 0.08 0.06 0.03 0.05 0.04
0.01 0.00 0.00 0.01 0.01 0.01 0.01 0.01 0.01 0.01 0.00 0.00 0.00 0.02 0.03 0.08 0.08 0.13 0.13 0.11 0.06 0.04
0.04 0.01 0.00 0.00 0.01 0.01 0.01 0.01 0.01 0.01 0.00 0.00 0.00 0.00 0.01 0.06 0.03 0.06 0.07 0.10 0.12 0.10
0.03 0.03 0.03 0.02 0.00 0.00 0.00 0.01 0.01 0.00 0.00 0.00 0.00 0.00 0.00 0.03 0.00 0.00 0.01 0.01 0.02 0.04
0.08 0.03 0.02 0.03 0.02 0.01 0.00 0.00 0.00 0.00 0.00 0.01 0.00 0.01 0.01 0.01 0.00 0.00 0.01 0.01 0.02 0.07
0.07 0.03 0.03 0.04 0.04 0.04 0.03 0.01 0.00 0.01 0.00 0.00 0.01 0.03 0.07 0.07 0.01 0.00 0.00 0.00 0.00 0.03

GFSNIL_prec_precacc6_120.txt.gz
Total_Precipitation_Accumulation
0.00 0.00 0.00 0.00 0.00 0.01 0.01 0.01 0.01 0.02 0.09 0.20 0.14 0.16 0.28 0.34 0.26 0.26 0.18 0.09 0.08 0.04
0.00 0.00 0.00 0.00 0.01 0.00 0.00 0.01 0.01 0.02 0.05 0.14 0.20 0.21 0.30 0.40 0.36 0.41 0.33 0.18 0.15 0.10
0.00 0.00 0.00 0.00 0.01 0.00 0.00 0.00 0.00 0.01 0.05 0.10 0.13 0.25 0.34 0.48 0.50 0.54 0.42 0.23 0.22 0.16
0.00 0.00 0.00 0.01 0.01 0.01 0.00 0.00 0.00 0.00 0.02 0.07 0.09 0.19 0.28 0.39 0.51 0.55 0.53 0.33 0.23 0.17
0.01 0.00 0.01 0.01 0.01 0.01 0.00 0.00 0.00 0.01 0.01 0.06 0.06 0.17 0.26 0.36 0.36 0.46 0.50 0.40 0.24 0.15
0.01 0.00 0.01 0.01 0.01 0.00 0.00 0.00 0.00 0.01 0.01 0.03 0.04 0.10 0.19 0.32 0.32 0.36 0.37 0.32 0.25 0.14
0.02 0.01 0.01 0.02 0.01 0.01 0.00 0.00 0.00 0.01 0.02 0.04 0.10 0.08 0.11 0.14 0.24 0.28 0.29 0.31 0.26 0.17
0.03 0.03 0.01 0.02 0.02 0.01 0.01 0.00 0.00 0.00 0.01 0.03 0.07 0.06 0.05 0.05 0.09 0.16 0.17 0.17 0.20 0.19
0.02 0.02 0.02 0.02 0.02 0.02 0.01 0.01 0.01 0.00 0.00 0.00 0.01 0.09 0.07 0.05 0.03 0.02 0.04 0.04 0.03 0.05
0.02 0.01 0.01 0.03 0.03 0.02 0.02 0.02 0.02 0.01 0.00 0.00 0.00 0.02 0.03 0.06 0.03 0.04 0.02 0.01 0.01 0.01
0.05 0.01 0.01 0.00 0.02 0.02 0.02 0.03 0.02 0.02 0.01 0.00 0.00 0.01 0.02 0.05 0.02 0.03 0.03 0.03 0.05 0.07
0.08 0.06 0.05 0.03 0.01 0.02 0.02 0.02 0.02 0.02 0.01 0.01 0.00 0.02 0.03 0.05 0.01 0.03 0.05 0.05 0.06 0.07
0.30 0.15 0.08 0.05 0.04 0.03 0.01 0.02 0.01 0.00 0.00 0.02 0.01 0.02 0.03 0.03 0.00 0.03 0.04 0.04 0.06 0.16
0.40 0.32 0.18 0.11 0.06 0.07 0.06 0.03 0.01 0.00 0.00 0.01 0.02 0.02 0.05 0.06 0.02 0.01 0.03 0.03 0.03 0.06

GFSNIL_prec_precacc6_126.txt.gz
Total_Precipitation_Accumulation
0.04 0.02 0.01 0.00 0.00 0.00 0.00 0.00 0.00 0.00 0.00 0.00 0.02 0.02 0.02 0.02 0.03 0.04 0.05 0.08 0.07 0.07
0.06 0.03 0.02 0.01 0.00 0.00 0.00 0.00 0.00 0.01 0.00 0.00 0.00 0.01 0.01 0.03 0.05 0.06 0.12 0.11 0.11 0.08
0.05 0.04 0.02 0.01 0.01 0.00 0.00 0.00 0.00 0.00 0.01 0.01 0.02 0.01 0.01 0.02 0.07 0.16 0.24 0.28 0.27 0.28
0.02 0.03 0.01 0.00 0.01 0.01 0.01 0.00 0.00 0.00 0.00 0.00 0.01 0.02 0.03 0.03 0.05 0.12 0.26 0.36 0.43 0.39
0.03 0.02 0.06 0.04 0.01 0.01 0.01 0.01 0.00 0.00 0.00 0.00 0.00 0.00 0.01 0.05 0.10 0.14 0.21 0.32 0.43 0.48
0.03 0.06 0.04 0.04 0.03 0.03 0.00 0.00 0.00 0.00 0.00 0.00 0.00 0.00 0.00 0.02 0.10 0.19 0.33 0.47 0.54 0.62
0.05 0.07 0.10 0.06 0.03 0.03 0.01 0.00 0.00 0.00 0.00 0.00 0.00 0.00 0.00 0.00 0.04 0.11 0.23 0.33 0.49 0.65
0.08 0.08 0.07 0.07 0.03 0.01 0.00 0.00 0.00 0.00 0.00 0.00 0.00 0.00 0.00 0.01 0.03 0.09 0.18 0.31 0.39 0.43
0.02 0.06 0.12 0.09 0.06 0.02 0.00 0.00 0.00 0.00 0.00 0.00 0.00 0.01 0.01 0.00 0.01 0.03 0.15 0.37 0.42 0.44
0.02 0.03 0.03 0.08 0.08 0.05 0.02 0.00 0.00 0.00 0.00 0.00 0.00 0.01 0.00 0.01 0.00 0.00 0.04 0.20 0.33 0.32
0.03 0.03 0.02 0.02 0.04 0.08 0.07 0.01 0.00 0.00 0.00 0.00 0.00 0.01 0.01 0.02 0.00 0.01 0.02 0.06 0.17 0.22
0.02 0.02 0.04 0.03 0.02 0.06 0.10 0.11 0.03 0.01 0.00 0.00 0.00 0.02 0.04 0.05 0.01 0.03 0.04 0.04 0.05 0.07
0.05 0.06 0.04 0.04 0.04 0.02 0.04 0.08 0.05 0.02 0.01 0.01 0.01 0.02 0.05 0.10 0.04 0.08 0.07 0.07 0.07 0.14
0.00 0.06 0.14 0.11 0.07 0.04 0.03 0.05 0.13 0.06 0.02 0.03 0.03 0.02 0.04 0.06 0.03 0.04 0.05 0.07 0.08 0.08

GFSNIL_prec_precacc6_129.txt.gz
Total_Precipitation_Accumulation
0.07 0.08 0.03 0.01 0.00 0.00 0.00 0.00 0.00 0.01 0.01 0.01 0.02 0.02 0.02 0.02 0.02 0.03 0.03 0.03 0.05 0.06
0.12 0.06 0.01 0.02 0.01 0.00 0.00 0.00 0.00 0.00 0.00 0.01 0.01 0.02 0.02 0.02 0.03 0.03 0.03 0.03 0.05 0.06
0.10 0.09 0.05 0.03 0.01 0.00 0.00 0.00 0.00 0.01 0.01 0.00 0.00 0.00 0.01 0.02 0.03 0.04 0.06 0.06 0.09 0.15
0.05 0.11 0.07 0.04 0.02 0.01 0.01 0.01 0.01 0.01 0.00 0.00 0.00 0.02 0.02 0.03 0.03 0.02 0.05 0.10 0.11 0.16
0.02 0.04 0.09 0.09 0.05 0.01 0.02 0.02 0.01 0.01 0.00 0.00 0.00 0.01 0.02 0.03 0.03 0.03 0.03 0.06 0.18 0.18
0.01 0.05 0.07 0.08 0.10 0.06 0.03 0.03 0.01 0.00 0.00 0.00 0.00 0.01 0.01 0.02 0.03 0.03 0.06 0.18 0.30 0.38
0.01 0.05 0.12 0.08 0.05 0.07 0.05 0.03 0.02 0.01 0.00 0.00 0.00 0.00 0.00 0.01 0.01 0.02 0.05 0.15 0.28 0.39
0.05 0.05 0.06 0.15 0.14 0.07 0.04 0.03 0.01 0.00 0.00 0.00 0.00 0.00 0.00 0.00 0.00 0.01 0.02 0.06 0.11 0.20
0.01 0.07 0.11 0.10 0.15 0.19 0.13 0.02 0.00 0.00 0.00 0.00 0.00 0.01 0.01 0.00 0.00 0.01 0.02 0.08 0.15 0.24
0.00 0.02 0.04 0.10 0.13 0.11 0.05 0.02 0.00 0.00 0.00 0.00 0.00 0.01 0.01 0.01 0.00 0.00 0.01 0.10 0.19 0.19
0.00 0.01 0.02 0.02 0.04 0.11 0.18 0.09 0.02 0.00 0.00 0.00 0.00 0.00 0.00 0.01 0.00 0.00 0.01 0.05 0.16 0.22
0.00 0.00 0.02 0.03 0.03 0.03 0.06 0.11 0.06 0.01 0.00 0.00 0.00 0.01 0.00 0.01 0.00 0.01 0.02 0.03 0.03 0.04
0.00 0.00 0.00 0.02 0.04 0.04 0.05 0.08 0.11 0.13 0.08 0.01 0.00 0.01 0.03 0.04 0.01 0.02 0.03 0.04 0.04 0.08
0.00 0.00 0.00 0.00 0.01 0.02 0.03 0.06 0.14 0.13 0.11 0.05 0.02 0.02 0.03 0.03 0.02 0.02 0.03 0.03 0.03 0.04

GFSNIL_prec_precacc6_132.txt.gz
Total_Precipitation_Accumulation
0.03 0.07 0.04 0.02 0.00 0.00 0.00 0.00 0.00 0.01 0.01 0.02 0.02 0.02 0.03 0.03 0.02 0.02 0.03 0.02 0.03 0.04
0.12 0.16 0.07 0.05 0.07 0.02 0.00 0.00 0.00 0.01 0.02 0.02 0.03 0.03 0.03 0.03 0.03 0.03 0.02 0.02 0.03 0.04
0.16 0.22 0.16 0.13 0.08 0.04 0.00 0.00 0.02 0.02 0.02 0.01 0.02 0.02 0.03 0.03 0.03 0.03 0.03 0.03 0.03 0.04
0.19 0.26 0.23 0.19 0.14 0.11 0.07 0.03 0.04 0.04 0.02 0.01 0.02 0.02 0.02 0.02 0.02 0.02 0.03 0.04 0.04 0.03
0.12 0.14 0.19 0.24 0.22 0.16 0.14 0.14 0.14 0.07 0.01 0.01 0.01 0.01 0.02 0.01 0.01 0.02 0.02 0.02 0.03 0.04
0.13 0.14 0.17 0.17 0.23 0.16 0.13 0.10 0.09 0.05 0.01 0.00 0.00 0.01 0.01 0.02 0.03 0.03 0.03 0.03 0.05 0.10
0.07 0.07 0.15 0.17 0.13 0.11 0.10 0.12 0.14 0.10 0.05 0.01 0.00 0.00 0.00 0.01 0.02 0.02 0.02 0.02 0.03 0.05
0.01 0.02 0.01 0.09 0.14 0.08 0.04 0.06 0.10 0.11 0.10 0.04 0.01 0.00 0.00 0.00 0.00 0.00 0.00 0.00 0.00 0.01
0.01 0.03 0.04 0.03 0.12 0.17 0.18 0.09 0.06 0.07 0.06 0.02 0.01 0.01 0.01 0.00 0.00 0.00 0.00 0.00 0.00 0.03
0.01 0.02 0.04 0.05 0.09 0.13 0.13 0.34 0.32 0.12 0.03 0.01 0.00 0.01 0.01 0.01 0.00 0.00 0.00 0.00 0.00 0.03
0.00 0.00 0.01 0.01 0.03 0.10 0.18 0.17 0.12 0.12 0.02 0.00 0.00 0.00 0.00 0.01 0.00 0.00 0.00 0.01 0.01 0.03
0.00 0.00 0.00 0.00 0.01 0.02 0.02 0.09 0.20 0.13 0.04 0.00 0.00 0.01 0.01 0.01 0.00 0.00 0.00 0.00 0.00 0.01
0.00 0.00 0.00 0.00 0.01 0.04 0.05 0.05 0.10 0.15 0.12 0.08 0.02 0.01 0.01 0.01 0.00 0.00 0.00 0.01 0.02 0.04
0.00 0.00 0.00 0.00 0.00 0.00 0.01 0.04 0.06 0.12 0.15 0.15 0.15 0.10 0.04 0.03 0.01 0.00 0.02 0.03 0.03 0.03